| time (UTC) | temp C | wind direction | speed KPH | gust KPH | rain 1hr cm | rain 24hr cm | rain mn cm | humidity % | barometer mb |
| 20260510065925 | 12 | 165 | 0.0 | 0.0 | 0.00 | 0.56 | 0.56 | 99 | 1007.3 |
| 20260510065422 | 12 | 164 | 0.0 | 0.0 | 0.00 | 0.56 | 0.56 | 99 | 1007.2 |
| 20260510064918 | 12 | 176 | 0.0 | 0.0 | 0.00 | 0.56 | 0.56 | 99 | 1007.4 |
| 20260510064416 | 12 | 175 | 1.6 | 1.6 | 0.00 | 0.56 | 0.56 | 99 | 1007.2 |
| 20260510063913 | 12 | 176 | 0.0 | 0.0 | 0.00 | 0.56 | 0.56 | 99 | 1007.0 |
| 20260510063409 | 12 | 155 | 0.0 | 1.6 | 0.18 | 0.56 | 0.56 | 99 | 1007.1 |
| 20260510062907 | 12 | 176 | 0.0 | 0.0 | 0.30 | 0.56 | 0.56 | 99 | 1007.4 |
| 20260510062401 | 12 | 160 | 3.2 | 3.2 | 0.13 | 0.53 | 0.53 | 99 | 1007.9 |
| 20260510061857 | 12 | 175 | 0.0 | 0.0 | 0.18 | 0.51 | 0.51 | 99 | 1008.2 |
| 20260510061354 | 12 | 173 | 1.6 | 1.6 | 0.18 | 0.51 | 0.51 | 99 | 1008.1 |
| 20260510060849 | 12 | 239 | 8.0 | 9.7 | 0.00 | 0.48 | 0.48 | 99 | 1008.9 |
| 20260510060347 | 11 | 172 | 0.0 | 0.0 | 0.00 | 0.48 | 0.48 | 99 | 1008.0 |
| 20260510055843 | 11 | 172 | 0.0 | 0.0 | 0.00 | 0.48 | 0.48 | 99 | 1007.6 |
| 20260510055343 | 11 | 172 | 0.0 | 0.0 | 0.00 | 0.48 | 0.48 | 99 | 1007.5 |
| 20260510054842 | 11 | 172 | 0.0 | 0.0 | 0.00 | 0.48 | 0.48 | 99 | 1007.5 |
| 20260510054338 | 12 | 172 | 0.0 | 0.0 | 0.00 | 0.48 | 0.48 | 99 | 1007.6 |
| 20260510053833 | 12 | 172 | 0.0 | 0.0 | 0.00 | 0.48 | 0.48 | 99 | 1007.6 |
| 20260510053329 | 12 | 176 | 1.6 | 1.6 | 0.00 | 0.48 | 0.48 | 99 | 1007.5 |
| 20260510052825 | 12 | 163 | 0.0 | 0.0 | 0.00 | 0.48 | 0.48 | 99 | 1007.7 |
| 20260510052321 | 12 | 164 | 0.0 | 0.0 | 0.00 | 0.48 | 0.48 | 99 | 1007.5 |
| 20260510051818 | 12 | 199 | 3.2 | 3.2 | 0.00 | 0.48 | 0.48 | 99 | 1007.4 |
| 20260510051314 | 12 | 175 | 1.6 | 1.6 | 0.00 | 0.48 | 0.48 | 99 | 1007.7 |
| 20260510050811 | 12 | 264 | 3.2 | 3.2 | 0.18 | 0.48 | 0.48 | 99 | 1007.5 |
| 20260510050308 | 12 | 168 | 3.2 | 3.2 | 0.18 | 0.48 | 0.48 | 99 | 1008.1 |
| 20260510045805 | 12 | 144 | 0.0 | 1.6 | 0.00 | 0.46 | 0.46 | 99 | 1008.3 |
| 20260510045305 | 12 | 68 | 3.2 | 3.2 | 0.00 | 0.46 | 0.46 | 99 | 1008.0 |
| 20260510044759 | 12 | 141 | 1.6 | 1.6 | 0.30 | 0.46 | 0.46 | 99 | 1007.5 |
| 20260510044256 | 12 | 181 | 0.0 | 0.0 | 0.89 | 0.46 | 0.46 | 99 | 1007.2 |
| 20260510043752 | 12 | 168 | 0.0 | 0.0 | 1.50 | 0.41 | 0.41 | 99 | 1007.2 |
| 20260510043248 | 12 | 168 | 0.0 | 0.0 | 1.07 | 0.30 | 0.30 | 99 | 1007.6 |
| 20260510042746 | 12 | 171 | 1.6 | 1.6 | 0.30 | 0.15 | 0.15 | 99 | 1008.3 |
| 20260510042241 | 12 | 165 | 0.0 | 0.0 | 0.30 | 0.13 | 0.13 | 99 | 1008.1 |
| 20260510041738 | 12 | 150 | 1.6 | 1.6 | 0.30 | 0.10 | 0.10 | 99 | 1007.8 |
| 20260510041236 | 12 | 136 | 1.6 | 1.6 | 0.61 | 0.10 | 0.10 | 99 | 1008.0 |
| 20260510040733 | 12 | 106 | 1.6 | 3.2 | 0.30 | 0.05 | 0.05 | 99 | 1007.6 |
| 20260510040230 | 12 | 174 | 1.6 | 1.6 | 0.18 | 0.00 | 0.00 | 99 | 1007.7 |
| 20260510035725 | 12 | 166 | 0.0 | 0.0 | 0.18 | 1.30 | 1.30 | 99 | 1007.4 |
| 20260510035221 | 12 | 166 | 0.0 | 0.0 | 0.00 | 1.27 | 1.27 | 99 | 1007.6 |
| 20260510034717 | 12 | 167 | 0.0 | 0.0 | 0.00 | 1.27 | 1.27 | 99 | 1007.5 |
| 20260510034215 | 12 | 168 | 0.0 | 0.0 | 0.00 | 1.27 | 1.27 | 99 | 1007.3 |
| 20260510033710 | 12 | 168 | 0.0 | 0.0 | 0.00 | 1.27 | 1.27 | 99 | 1007.1 |
| 20260510033209 | 12 | 167 | 0.0 | 0.0 | 0.00 | 1.27 | 1.27 | 99 | 1007.0 |
| 20260510032705 | 12 | 167 | 0.0 | 0.0 | 0.00 | 1.27 | 1.27 | 98 | 1006.8 |
| 20260510032201 | 12 | 167 | 0.0 | 0.0 | 0.00 | 1.27 | 1.27 | 98 | 1007.0 |
| 20260510031656 | 12 | 173 | 0.0 | 0.0 | 0.00 | 1.27 | 1.27 | 98 | 1007.0 |
| 20260510031153 | 12 | 173 | 0.0 | 0.0 | 0.00 | 1.27 | 1.27 | 98 | 1007.1 |
| 20260510030652 | 12 | 173 | 0.0 | 1.6 | 0.00 | 1.27 | 1.27 | 98 | 1007.0 |
| 20260510030150 | 12 | 182 | 0.0 | 0.0 | 0.00 | 1.27 | 1.27 | 98 | 1007.1 |
| 20260510025647 | 12 | 179 | 0.0 | 1.6 | 0.00 | 1.27 | 1.27 | 98 | 1007.3 |
| 20260510025144 | 12 | 168 | 0.0 | 0.0 | 0.00 | 1.27 | 1.27 | 98 | 1007.5 |
| 20260510024641 | 12 | 167 | 0.0 | 0.0 | 0.00 | 1.27 | 1.27 | 98 | 1007.2 |
| 20260510024137 | 13 | 167 | 0.0 | 0.0 | 0.13 | 1.27 | 1.27 | 97 | 1007.5 |
| 20260510023633 | 13 | 177 | 0.0 | 0.0 | 0.43 | 1.27 | 1.27 | 97 | 1007.6 |
| 20260510023131 | 13 | 167 | 0.0 | 0.0 | 0.79 | 1.24 | 1.24 | 97 | 1007.6 |
| 20260510022631 | 13 | 180 | 3.2 | 3.2 | 0.97 | 1.19 | 1.19 | 97 | 1007.7 |
| 20260510022126 | 13 | 168 | 1.6 | 1.6 | 0.89 | 1.12 | 1.12 | 96 | 1008.3 |
| 20260510021622 | 13 | 152 | 0.0 | 1.6 | 1.02 | 1.04 | 1.04 | 96 | 1008.3 |
| 20260510021120 | 13 | 154 | 0.0 | 1.6 | 0.89 | 0.97 | 0.97 | 96 | 1008.2 |
| 20260510020619 | 13 | 142 | 1.6 | 1.6 | 0.48 | 0.86 | 0.86 | 95 | 1008.0 |
| 20260510020115 | 13 | 114 | 3.2 | 3.2 | 0.48 | 0.81 | 0.81 | 95 | 1008.1 |
| 20260510015612 | 13 | 82 | 4.8 | 8.0 | 1.19 | 0.79 | 0.79 | 94 | 1008.0 |
| 20260510015108 | 13 | 147 | 1.6 | 3.2 | 3.07 | 0.74 | 0.74 | 92 | 1008.0 |
| 20260510014604 | 13 | 136 | 3.2 | 4.8 | 2.29 | 0.61 | 0.61 | 89 | 1007.6 |
| 20260510014102 | 15 | 45 | 8.0 | 11.3 | 0.00 | 0.23 | 0.23 | 80 | 1007.5 |
| 20260510013601 | 16 | 50 | 4.8 | 4.8 | 0.00 | 0.23 | 0.23 | 74 | 1006.7 |
| 20260510013058 | 15 | 94 | 3.2 | 3.2 | 0.00 | 0.23 | 0.23 | 78 | 1005.3 |
| 20260510012557 | 15 | 158 | 0.0 | 1.6 | 0.00 | 0.23 | 0.23 | 78 | 1005.1 |
| 20260510012054 | 15 | 169 | 0.0 | 0.0 | 0.00 | 0.23 | 0.23 | 77 | 1004.8 |
| 20260510011553 | 15 | 135 | 0.0 | 0.0 | 0.00 | 0.23 | 0.23 | 77 | 1004.6 |
| 20260510011049 | 15 | 168 | 0.0 | 0.0 | 0.00 | 0.23 | 0.23 | 81 | 1004.6 |
| 20260510010546 | 15 | 142 | 1.6 | 1.6 | 0.00 | 0.23 | 0.23 | 80 | 1004.8 |
| 20260510010043 | 15 | 145 | 1.6 | 1.6 | 0.00 | 0.23 | 0.23 | 79 | 1004.9 |
| 20260510005539 | 15 | 141 | 1.6 | 1.6 | 0.00 | 0.23 | 0.23 | 78 | 1004.8 |
| 20260510005037 | 15 | 145 | 0.0 | 1.6 | 0.00 | 0.23 | 0.23 | 77 | 1004.8 |
| 20260510004534 | 15 | 156 | 0.0 | 0.0 | 0.00 | 0.23 | 0.23 | 76 | 1004.9 |
| 20260510004032 | 16 | 158 | 0.0 | 0.0 | 0.00 | 0.23 | 0.23 | 74 | 1004.7 |
| 20260510003528 | 16 | 163 | 0.0 | 0.0 | 0.00 | 0.23 | 0.23 | 73 | 1004.6 |
| 20260510003024 | 16 | 171 | 0.0 | 0.0 | 0.00 | 0.23 | 0.23 | 72 | 1004.8 |
| 20260510002519 | 16 | 169 | 0.0 | 0.0 | 0.00 | 0.23 | 0.23 | 71 | 1004.5 |
| 20260510002017 | 17 | 175 | 0.0 | 1.6 | 0.00 | 0.23 | 0.23 | 70 | 1004.5 |
| 20260510001514 | 17 | 168 | 0.0 | 0.0 | 0.00 | 0.23 | 0.23 | 69 | 1004.7 |
| 20260510001012 | 17 | 170 | 0.0 | 1.6 | 0.00 | 0.23 | 0.23 | 68 | 1004.6 |
| 20260510000513 | 17 | 164 | 1.6 | 1.6 | 0.00 | 0.23 | 0.23 | 68 | 1004.4 |
| 20260510000010 | 17 | 172 | 0.0 | 0.0 | 0.00 | 0.23 | 0.23 | 67 | 1004.5 |
| 20260509235506 | 17 | 185 | 0.0 | 1.6 | 0.00 | 0.23 | 0.23 | 68 | 1004.2 |
| 20260509235002 | 18 | 180 | 1.6 | 1.6 | 0.00 | 0.23 | 0.23 | 67 | 1004.2 |
| 20260509234459 | 18 | 107 | 1.6 | 1.6 | 0.00 | 0.23 | 0.23 | 67 | 1004.1 |
| 20260509233957 | 18 | 172 | 0.0 | 1.6 | 0.00 | 0.23 | 0.23 | 66 | 1004.2 |
| 20260509233454 | 18 | 161 | 0.0 | 0.0 | 0.00 | 0.23 | 0.23 | 65 | 1004.1 |
| 20260509232950 | 18 | 234 | 3.2 | 3.2 | 0.00 | 0.23 | 0.23 | 62 | 1003.9 |
| 20260509232448 | 18 | 176 | 1.6 | 1.6 | 0.00 | 0.23 | 0.23 | 64 | 1004.2 |
| 20260509231944 | 19 | 174 | 1.6 | 1.6 | 0.00 | 0.23 | 0.23 | 63 | 1003.8 |
| 20260509231440 | 19 | 172 | 6.4 | 9.7 | 0.00 | 0.23 | 0.23 | 59 | 1004.0 |
| 20260509230939 | 19 | 112 | 1.6 | 1.6 | 0.00 | 0.23 | 0.23 | 60 | 1004.0 |
| 20260509230435 | 20 | 177 | 0.0 | 1.6 | 0.00 | 0.23 | 0.23 | 62 | 1004.2 |
| 20260509225931 | 20 | 172 | 1.6 | 1.6 | 0.00 | 0.23 | 0.23 | 57 | 1004.2 |
| 20260509225428 | 20 | 196 | 3.2 | 3.2 | 0.00 | 0.23 | 0.23 | 58 | 1004.3 |
| 20260509224924 | 21 | 223 | 1.6 | 1.6 | 0.00 | 0.23 | 0.23 | 58 | 1004.4 |
| 20260509224419 | 20 | 177 | 3.2 | 4.8 | 0.00 | 0.23 | 0.23 | 59 | 1004.1 |
| 20260509223917 | 21 | 164 | 0.0 | 0.0 | 0.00 | 0.23 | 0.23 | 59 | 1004.0 |
| 20260509223414 | 21 | 195 | 1.6 | 1.6 | 0.00 | 0.23 | 0.23 | 57 | 1004.1 |
| 20260509222911 | 21 | 188 | 9.7 | 11.3 | 0.00 | 0.23 | 0.23 | 55 | 1004.1 |
| 20260509222406 | 21 | 183 | 0.0 | 0.0 | 0.00 | 0.23 | 0.23 | 53 | 1004.1 |
| 20260509221901 | 21 | 315 | 4.8 | 4.8 | 0.00 | 0.23 | 0.23 | 55 | 1004.2 |
| 20260509221359 | 21 | 299 | 3.2 | 3.2 | 0.00 | 0.23 | 0.23 | 58 | 1003.8 |
| 20260509220855 | 21 | 175 | 4.8 | 8.0 | 0.00 | 0.23 | 0.23 | 55 | 1003.9 |
| 20260509220350 | 21 | 189 | 1.6 | 1.6 | 0.00 | 0.23 | 0.23 | 56 | 1004.1 |
| 20260509215846 | 21 | 192 | 1.6 | 1.6 | 0.00 | 0.23 | 0.23 | 59 | 1004.0 |
| 20260509215343 | 21 | 207 | 6.4 | 8.0 | 0.00 | 0.23 | 0.23 | 55 | 1004.1 |
| 20260509214840 | 21 | 196 | 3.2 | 3.2 | 0.00 | 0.23 | 0.23 | 55 | 1004.1 |
| 20260509214337 | 21 | 134 | 4.8 | 4.8 | 0.00 | 0.23 | 0.23 | 57 | 1004.4 |
| 20260509213834 | 21 | 208 | 4.8 | 4.8 | 0.00 | 0.23 | 0.23 | 58 | 1004.2 |
| 20260509213329 | 21 | 230 | 6.4 | 8.0 | 0.00 | 0.23 | 0.23 | 54 | 1004.4 |
| 20260509212828 | 21 | 176 | 0.0 | 0.0 | 0.00 | 0.23 | 0.23 | 58 | 1004.4 |
| 20260509212325 | 21 | 247 | 8.0 | 9.7 | 0.00 | 0.23 | 0.23 | 55 | 1004.4 |
| 20260509211821 | 21 | 179 | 1.6 | 1.6 | 0.00 | 0.23 | 0.23 | 54 | 1004.3 |
| 20260509211317 | 20 | 216 | 4.8 | 8.0 | 0.00 | 0.23 | 0.23 | 55 | 1004.2 |
| 20260509210814 | 20 | 187 | 1.6 | 1.6 | 0.00 | 0.23 | 0.23 | 55 | 1004.3 |
| 20260509210312 | 21 | 170 | 1.6 | 3.2 | 0.00 | 0.23 | 0.23 | 57 | 1004.5 |
| 20260509205810 | 20 | 126 | 3.2 | 4.8 | 0.00 | 0.23 | 0.23 | 56 | 1004.4 |
| 20260509205307 | 20 | 192 | 8.0 | 11.3 | 0.00 | 0.23 | 0.23 | 57 | 1004.6 |
| 20260509204802 | 19 | 202 | 4.8 | 4.8 | 0.00 | 0.23 | 0.23 | 59 | 1004.6 |
| 20260509204258 | 20 | 179 | 11.3 | 22.5 | 0.00 | 0.23 | 0.23 | 58 | 1004.8 |
| 20260509203754 | 20 | 178 | 11.3 | 12.9 | 0.00 | 0.23 | 0.23 | 58 | 1004.9 |
| 20260509203252 | 20 | 194 | 4.8 | 4.8 | 0.00 | 0.23 | 0.23 | 57 | 1004.9 |
| 20260509202748 | 20 | 176 | 1.6 | 1.6 | 0.00 | 0.23 | 0.23 | 57 | 1005.0 |
| 20260509202244 | 20 | 182 | 9.7 | 11.3 | 0.00 | 0.23 | 0.23 | 59 | 1005.0 |
| 20260509201744 | 20 | 170 | 4.8 | 8.0 | 0.00 | 0.23 | 0.23 | 58 | 1005.1 |
| 20260509201241 | 21 | 235 | 8.0 | 11.3 | 0.00 | 0.23 | 0.23 | 56 | 1005.2 |
| 20260509200738 | 20 | 268 | 6.4 | 9.7 | 0.00 | 0.23 | 0.23 | 58 | 1005.2 |
| 20260509200238 | 20 | 178 | 4.8 | 4.8 | 0.00 | 0.23 | 0.23 | 60 | 1005.1 |
| 20260509195734 | 20 | 106 | 4.8 | 8.0 | 0.00 | 0.23 | 0.23 | 59 | 1005.0 |
| 20260509195229 | 19 | 205 | 4.8 | 4.8 | 0.00 | 0.23 | 0.23 | 62 | 1005.2 |
| 20260509194724 | 19 | 60 | 4.8 | 4.8 | 0.00 | 0.23 | 0.23 | 61 | 1005.3 |
| 20260509194220 | 20 | 153 | 11.3 | 14.5 | 0.00 | 0.23 | 0.23 | 60 | 1005.4 |
| 20260509193717 | 20 | 173 | 1.6 | 1.6 | 0.00 | 0.23 | 0.23 | 62 | 1005.5 |
| 20260509193217 | 20 | 188 | 3.2 | 3.2 | 0.00 | 0.23 | 0.23 | 61 | 1005.5 |
| 20260509192714 | 20 | 231 | 1.6 | 4.8 | 0.00 | 0.23 | 0.23 | 60 | 1005.7 |
| 20260509192209 | 20 | 167 | 4.8 | 4.8 | 0.00 | 0.23 | 0.23 | 62 | 1005.7 |
| 20260509191705 | 20 | 205 | 6.4 | 8.0 | 0.00 | 0.23 | 0.23 | 63 | 1005.6 |
| 20260509191201 | 20 | 196 | 4.8 | 8.0 | 0.00 | 0.23 | 0.23 | 62 | 1005.4 |
| 20260509190657 | 18 | 166 | 3.2 | 4.8 | 0.00 | 0.23 | 0.23 | 66 | 1005.9 |
| 20260509190155 | 18 | 204 | 3.2 | 3.2 | 0.00 | 0.23 | 0.23 | 67 | 1005.7 |
| 20260509185652 | 18 | 201 | 6.4 | 8.0 | 0.00 | 0.23 | 0.23 | 65 | 1005.9 |
| 20260509185148 | 18 | 174 | 8.0 | 8.0 | 0.00 | 0.23 | 0.23 | 65 | 1006.1 |
| 20260509184646 | 19 | 164 | 0.0 | 0.0 | 0.00 | 0.23 | 0.23 | 67 | 1006.0 |
| 20260509184142 | 18 | 200 | 1.6 | 1.6 | 0.00 | 0.23 | 0.23 | 66 | 1006.1 |
| 20260509183639 | 18 | 224 | 9.7 | 11.3 | 0.00 | 0.23 | 0.23 | 66 | 1006.0 |
| 20260509183134 | 18 | 185 | 3.2 | 4.8 | 0.00 | 0.23 | 0.23 | 68 | 1006.1 |
| 20260509182630 | 17 | 126 | 1.6 | 1.6 | 0.00 | 0.23 | 0.23 | 72 | 1006.0 |
| 20260509182127 | 17 | 228 | 6.4 | 8.0 | 0.00 | 0.23 | 0.23 | 71 | 1006.3 |
| 20260509181625 | 17 | 189 | 4.8 | 4.8 | 0.00 | 0.23 | 0.23 | 70 | 1006.4 |
| 20260509181123 | 17 | 150 | 9.7 | 14.5 | 0.00 | 0.23 | 0.23 | 69 | 1006.6 |
| 20260509180619 | 17 | 160 | 6.4 | 8.0 | 0.00 | 0.23 | 0.23 | 71 | 1006.5 |
| 20260509180116 | 17 | 175 | 0.0 | 1.6 | 0.00 | 0.23 | 0.23 | 72 | 1006.3 |
| 20260509175611 | 17 | 198 | 4.8 | 8.0 | 0.00 | 0.23 | 0.23 | 70 | 1006.3 |
| 20260509175109 | 17 | 168 | 4.8 | 8.0 | 0.00 | 0.23 | 0.23 | 71 | 1006.5 |
| 20260509174605 | 17 | 209 | 8.0 | 9.7 | 0.00 | 0.23 | 0.23 | 72 | 1006.7 |
| 20260509174100 | 17 | 217 | 6.4 | 9.7 | 0.00 | 0.23 | 0.23 | 72 | 1006.3 |
| 20260509173555 | 17 | 205 | 3.2 | 3.2 | 0.00 | 0.23 | 0.23 | 73 | 1006.6 |
| 20260509173051 | 16 | 162 | 1.6 | 3.2 | 0.00 | 0.23 | 0.23 | 73 | 1006.5 |
| 20260509172549 | 16 | 211 | 4.8 | 4.8 | 0.00 | 0.23 | 0.23 | 74 | 1006.5 |
| 20260509172044 | 16 | 138 | 3.2 | 4.8 | 0.00 | 0.23 | 0.23 | 73 | 1006.6 |
| 20260509171540 | 16 | 178 | 9.7 | 12.9 | 0.00 | 0.23 | 0.23 | 75 | 1006.6 |
| 20260509171037 | 16 | 140 | 3.2 | 3.2 | 0.00 | 0.23 | 0.23 | 76 | 1006.5 |
| 20260509170533 | 16 | 219 | 3.2 | 4.8 | 0.00 | 0.23 | 0.23 | 75 | 1006.7 |
| 20260509170029 | 16 | 181 | 3.2 | 3.2 | 0.00 | 0.23 | 0.23 | 77 | 1006.6 |
| 20260509165527 | 16 | 183 | 1.6 | 1.6 | 0.00 | 0.23 | 0.23 | 76 | 1006.5 |
| 20260509165023 | 15 | 108 | 3.2 | 3.2 | 0.00 | 0.23 | 0.23 | 77 | 1006.5 |
| 20260509164520 | 15 | 1 | 3.2 | 4.8 | 0.00 | 0.23 | 0.23 | 78 | 1006.5 |
| 20260509164016 | 15 | 155 | 3.2 | 4.8 | 0.00 | 0.23 | 0.23 | 78 | 1006.6 |
| 20260509163514 | 15 | 179 | 4.8 | 4.8 | 0.00 | 0.23 | 0.23 | 77 | 1006.5 |
| 20260509163014 | 15 | 249 | 4.8 | 4.8 | 0.00 | 0.23 | 0.23 | 79 | 1006.4 |
| 20260509162512 | 15 | 187 | 4.8 | 9.7 | 0.00 | 0.23 | 0.23 | 80 | 1006.3 |
| 20260509162008 | 15 | 165 | 3.2 | 3.2 | 0.00 | 0.23 | 0.23 | 82 | 1006.3 |
| 20260509161504 | 15 | 184 | 1.6 | 3.2 | 0.00 | 0.23 | 0.23 | 81 | 1006.2 |
| 20260509160959 | 15 | 193 | 3.2 | 3.2 | 0.00 | 0.23 | 0.23 | 82 | 1006.4 |
| 20260509160455 | 15 | 175 | 1.6 | 1.6 | 0.00 | 0.23 | 0.23 | 84 | 1006.2 |
| 20260509155956 | 15 | 210 | 3.2 | 3.2 | 0.00 | 0.23 | 0.23 | 83 | 1006.3 |
| 20260509155453 | 15 | 186 | 3.2 | 3.2 | 0.00 | 0.23 | 0.23 | 85 | 1006.1 |
| 20260509154949 | 15 | 187 | 3.2 | 3.2 | 0.00 | 0.23 | 0.23 | 85 | 1006.2 |
| 20260509154445 | 14 | 189 | 4.8 | 4.8 | 0.00 | 0.23 | 0.23 | 85 | 1006.0 |
| 20260509153943 | 13 | 217 | 6.4 | 8.0 | 0.00 | 0.23 | 0.23 | 88 | 1006.1 |
| 20260509153439 | 14 | 216 | 6.4 | 8.0 | 0.00 | 0.23 | 0.23 | 88 | 1006.0 |
| 20260509152936 | 13 | 176 | 1.6 | 1.6 | 0.00 | 0.23 | 0.23 | 90 | 1006.2 |
| 20260509152432 | 13 | 198 | 3.2 | 4.8 | 0.13 | 0.23 | 0.23 | 91 | 1006.0 |
| 20260509151929 | 13 | 202 | 3.2 | 3.2 | 0.13 | 0.23 | 0.23 | 90 | 1006.0 |
| 20260509151425 | 13 | 186 | 4.8 | 4.8 | 0.00 | 0.20 | 0.20 | 92 | 1006.1 |
| 20260509150924 | 12 | 167 | 0.0 | 0.0 | 0.00 | 0.20 | 0.20 | 95 | 1006.2 |
| 20260509150421 | 12 | 186 | 3.2 | 3.2 | 0.00 | 0.20 | 0.20 | 97 | 1006.2 |
| 20260509145919 | 12 | 178 | 1.6 | 1.6 | 0.00 | 0.20 | 0.20 | 99 | 1006.3 |
| 20260509145419 | 12 | 181 | 0.0 | 1.6 | 0.00 | 0.20 | 0.20 | 99 | 1006.2 |
| 20260509144915 | 12 | 197 | 3.2 | 3.2 | 0.00 | 0.20 | 0.20 | 99 | 1006.1 |
| 20260509144412 | 12 | 171 | 1.6 | 1.6 | 0.00 | 0.20 | 0.20 | 99 | 1006.0 |
| 20260509143909 | 12 | 164 | 0.0 | 0.0 | 0.00 | 0.20 | 0.20 | 99 | 1006.2 |
| 20260509143406 | 11 | 170 | 1.6 | 1.6 | 0.00 | 0.20 | 0.20 | 99 | 1006.6 |
| 20260509142902 | 11 | 167 | 0.0 | 1.6 | 0.00 | 0.20 | 0.20 | 99 | 1006.5 |
| 20260509142359 | 11 | 164 | 0.0 | 0.0 | 0.00 | 0.20 | 0.20 | 99 | 1006.6 |
| 20260509141854 | 11 | 170 | 0.0 | 0.0 | 0.00 | 0.20 | 0.20 | 99 | 1006.4 |
| 20260509141352 | 11 | 171 | 3.2 | 3.2 | 0.00 | 0.20 | 0.20 | 99 | 1006.4 |
| 20260509140848 | 11 | 171 | 1.6 | 1.6 | 0.00 | 0.20 | 0.20 | 99 | 1006.6 |
| 20260509140345 | 11 | 160 | 0.0 | 0.0 | 0.00 | 0.20 | 0.20 | 99 | 1006.2 |
| 20260509135843 | 11 | 167 | 0.0 | 0.0 | 0.00 | 0.20 | 0.20 | 99 | 1006.6 |
| 20260509135340 | 11 | 165 | 0.0 | 0.0 | 0.00 | 0.20 | 0.20 | 99 | 1006.5 |
| 20260509134838 | 11 | 167 | 0.0 | 0.0 | 0.00 | 0.20 | 0.20 | 99 | 1006.5 |
| 20260509134335 | 11 | 166 | 0.0 | 0.0 | 0.00 | 0.20 | 0.20 | 99 | 1006.5 |
| 20260509133831 | 11 | 164 | 0.0 | 0.0 | 0.00 | 0.20 | 0.20 | 99 | 1006.3 |
| 20260509133328 | 11 | 166 | 0.0 | 0.0 | 0.00 | 0.20 | 0.20 | 99 | 1006.4 |
| 20260509132827 | 11 | 167 | 0.0 | 0.0 | 0.00 | 0.20 | 0.20 | 99 | 1006.6 |
| 20260509132325 | 11 | 167 | 1.6 | 1.6 | 0.00 | 0.20 | 0.20 | 99 | 1006.5 |
| 20260509131822 | 11 | 163 | 0.0 | 0.0 | 0.00 | 0.20 | 0.20 | 99 | 1006.5 |
| 20260509131319 | 11 | 163 | 0.0 | 0.0 | 0.00 | 0.20 | 0.20 | 99 | 1006.6 |
| 20260509130815 | 10 | 164 | 0.0 | 0.0 | 0.00 | 0.20 | 0.20 | 99 | 1006.5 |
| 20260509130311 | 10 | 164 | 0.0 | 0.0 | 0.00 | 0.20 | 0.20 | 99 | 1006.5 |
| 20260509125807 | 10 | 164 | 0.0 | 0.0 | 0.00 | 0.20 | 0.20 | 99 | 1006.6 |
| 20260509125307 | 10 | 164 | 0.0 | 0.0 | 0.00 | 0.20 | 0.20 | 99 | 1006.8 |
| 20260509124800 | 10 | 164 | 0.0 | 0.0 | 0.00 | 0.20 | 0.20 | 99 | 1006.6 |
| 20260509124257 | 10 | 164 | 0.0 | 0.0 | 0.00 | 0.20 | 0.20 | 99 | 1006.6 |
| 20260509123755 | 10 | 159 | 0.0 | 0.0 | 0.00 | 0.20 | 0.20 | 99 | 1006.7 |
| 20260509123252 | 10 | 158 | 0.0 | 0.0 | 0.00 | 0.20 | 0.20 | 99 | 1006.6 |
| 20260509122748 | 10 | 162 | 0.0 | 0.0 | 0.18 | 0.20 | 0.20 | 99 | 1006.7 |
| 20260509122245 | 10 | 162 | 0.0 | 0.0 | 0.36 | 0.20 | 0.20 | 99 | 1006.9 |
| 20260509121742 | 10 | 162 | 0.0 | 0.0 | 0.48 | 0.20 | 0.20 | 99 | 1007.0 |
| 20260509121239 | 10 | 161 | 0.0 | 0.0 | 0.13 | 0.15 | 0.15 | 99 | 1006.9 |
| 20260509120737 | 10 | 161 | 0.0 | 0.0 | 0.00 | 0.13 | 0.13 | 99 | 1006.9 |
| 20260509120235 | 10 | 161 | 0.0 | 0.0 | 0.00 | 0.13 | 0.13 | 99 | 1007.0 |
| 20260509115733 | 10 | 164 | 0.0 | 0.0 | 0.18 | 0.13 | 0.13 | 99 | 1007.0 |
| 20260509115229 | 10 | 164 | 0.0 | 0.0 | 0.18 | 0.13 | 0.13 | 99 | 1006.8 |
| 20260509114728 | 10 | 165 | 0.0 | 0.0 | 0.00 | 0.10 | 0.10 | 99 | 1006.9 |
| 20260509114226 | 10 | 165 | 0.0 | 0.0 | 0.00 | 0.10 | 0.10 | 99 | 1007.0 |
| 20260509113724 | 10 | 165 | 0.0 | 0.0 | 0.00 | 0.10 | 0.10 | 99 | 1006.8 |
| 20260509113221 | 10 | 165 | 0.0 | 0.0 | 0.00 | 0.10 | 0.10 | 99 | 1006.7 |
| 20260509112718 | 10 | 165 | 0.0 | 0.0 | 0.00 | 0.10 | 0.10 | 99 | 1006.8 |
| 20260509112215 | 10 | 165 | 0.0 | 0.0 | 0.00 | 0.10 | 0.10 | 99 | 1006.6 |
| 20260509111712 | 10 | 165 | 0.0 | 0.0 | 0.00 | 0.10 | 0.10 | 99 | 1006.8 |
| 20260509111209 | 10 | 165 | 0.0 | 0.0 | 0.00 | 0.10 | 0.10 | 99 | 1006.7 |
| 20260509110706 | 10 | 165 | 0.0 | 0.0 | 0.00 | 0.10 | 0.10 | 99 | 1006.4 |
| 20260509110203 | 10 | 164 | 0.0 | 0.0 | 0.13 | 0.10 | 0.10 | 99 | 1006.4 |
| 20260509105701 | 10 | 164 | 0.0 | 0.0 | 0.13 | 0.10 | 0.10 | 99 | 1006.5 |
| 20260509105158 | 10 | 164 | 0.0 | 0.0 | 0.00 | 0.08 | 0.08 | 99 | 1006.6 |
| 20260509104655 | 9 | 164 | 0.0 | 0.0 | 0.00 | 0.08 | 0.08 | 99 | 1006.7 |
| 20260509104152 | 9 | 164 | 0.0 | 0.0 | 0.18 | 0.08 | 0.08 | 99 | 1006.5 |
| 20260509103650 | 9 | 164 | 0.0 | 0.0 | 0.18 | 0.08 | 0.08 | 99 | 1006.5 |
| 20260509103147 | 9 | 164 | 0.0 | 0.0 | 0.00 | 0.05 | 0.05 | 99 | 1006.6 |
| 20260509102645 | 9 | 165 | 0.0 | 0.0 | 0.00 | 0.05 | 0.05 | 99 | 1006.7 |
| 20260509102142 | 9 | 165 | 0.0 | 0.0 | 0.00 | 0.05 | 0.05 | 99 | 1006.7 |
| 20260509101638 | 9 | 165 | 0.0 | 0.0 | 0.00 | 0.05 | 0.05 | 99 | 1006.6 |
| 20260509101135 | 9 | 165 | 0.0 | 0.0 | 0.00 | 0.05 | 0.05 | 99 | 1006.6 |
| 20260509100632 | 9 | 165 | 0.0 | 0.0 | 0.00 | 0.05 | 0.05 | 99 | 1006.5 |
| 20260509100129 | 9 | 165 | 0.0 | 0.0 | 0.00 | 0.05 | 0.05 | 99 | 1006.3 |
| 20260509095626 | 9 | 165 | 0.0 | 0.0 | 0.00 | 0.05 | 0.05 | 99 | 1006.5 |
| 20260509095123 | 9 | 165 | 0.0 | 0.0 | 0.00 | 0.05 | 0.05 | 99 | 1006.7 |
| 20260509094619 | 9 | 165 | 0.0 | 0.0 | 0.00 | 0.05 | 0.05 | 99 | 1006.6 |
| 20260509094117 | 9 | 165 | 0.0 | 0.0 | 0.00 | 0.05 | 0.05 | 99 | 1006.8 |
| 20260509093615 | 9 | 165 | 0.0 | 0.0 | 0.00 | 0.05 | 0.05 | 99 | 1006.8 |
| 20260509093112 | 9 | 164 | 0.0 | 0.0 | 0.00 | 0.05 | 0.05 | 99 | 1006.4 |
| 20260509092609 | 9 | 160 | 0.0 | 0.0 | 0.00 | 0.05 | 0.05 | 99 | 1006.7 |
| 20260509092108 | 9 | 163 | 0.0 | 0.0 | 0.00 | 0.05 | 0.05 | 99 | 1006.9 |
| 20260509091606 | 9 | 163 | 0.0 | 0.0 | 0.00 | 0.05 | 0.05 | 99 | 1007.0 |
| 20260509091101 | 9 | 163 | 0.0 | 0.0 | 0.13 | 0.05 | 0.05 | 99 | 1007.0 |
| 20260509090559 | 9 | 163 | 0.0 | 0.0 | 0.13 | 0.05 | 0.05 | 99 | 1007.2 |
| 20260509090057 | 9 | 162 | 0.0 | 0.0 | 0.00 | 0.03 | 0.03 | 99 | 1007.0 |
| 20260509085554 | 9 | 162 | 0.0 | 0.0 | 0.00 | 0.03 | 0.03 | 99 | 1007.0 |
| 20260509085050 | 9 | 162 | 0.0 | 0.0 | 0.00 | 0.03 | 0.03 | 99 | 1007.3 |
| 20260509084547 | 9 | 162 | 0.0 | 0.0 | 0.00 | 0.03 | 0.03 | 99 | 1007.1 |
| 20260509084044 | 9 | 162 | 0.0 | 0.0 | 0.00 | 0.03 | 0.03 | 99 | 1007.1 |
| 20260509083542 | 9 | 161 | 0.0 | 0.0 | 0.00 | 0.03 | 0.03 | 99 | 1007.1 |
| 20260509083038 | 9 | 162 | 0.0 | 0.0 | 0.00 | 0.03 | 0.03 | 99 | 1007.2 |
| 20260509082536 | 9 | 162 | 0.0 | 0.0 | 0.00 | 0.03 | 0.03 | 99 | 1007.3 |
| 20260509082032 | 9 | 162 | 0.0 | 0.0 | 0.00 | 0.03 | 0.03 | 99 | 1007.2 |
| 20260509081530 | 9 | 158 | 0.0 | 0.0 | 0.00 | 0.03 | 0.03 | 99 | 1007.3 |
| 20260509081026 | 9 | 157 | 0.0 | 0.0 | 0.00 | 0.03 | 0.03 | 99 | 1007.3 |
| 20260509080524 | 9 | 161 | 0.0 | 0.0 | 0.00 | 0.03 | 0.03 | 99 | 1007.3 |
| 20260509080022 | 9 | 161 | 0.0 | 0.0 | 0.00 | 0.03 | 0.03 | 99 | 1007.4 |
| 20260509075519 | 9 | 161 | 0.0 | 0.0 | 0.00 | 0.03 | 0.03 | 99 | 1007.3 |
| 20260509075017 | 9 | 161 | 0.0 | 0.0 | 0.00 | 0.03 | 0.03 | 99 | 1007.5 |
| 20260509074514 | 9 | 165 | 0.0 | 0.0 | 0.18 | 0.03 | 0.03 | 99 | 1007.4 |
| 20260509074010 | 9 | 165 | 0.0 | 0.0 | 0.18 | 0.03 | 0.03 | 99 | 1007.5 |
| 20260509073507 | 9 | 162 | 0.0 | 0.0 | 0.00 | 0.00 | 0.00 | 99 | 1007.2 |
| 20260509073003 | 9 | 156 | 0.0 | 0.0 | 0.00 | 0.00 | 0.00 | 99 | 1007.2 |
| 20260509072500 | 9 | 153 | 0.0 | 0.0 | 0.00 | 0.00 | 0.00 | 99 | 1007.4 |
| 20260509071957 | 9 | 163 | 0.0 | 0.0 | 0.00 | 0.00 | 0.00 | 99 | 1007.4 |
| 20260509071453 | 9 | 163 | 0.0 | 0.0 | 0.00 | 0.00 | 0.00 | 99 | 1007.5 |
| 20260509070951 | 9 | 163 | 0.0 | 0.0 | 0.00 | 0.00 | 0.00 | 99 | 1007.5 |
| 20260509070448 | 9 | 162 | 0.0 | 0.0 | 0.00 | 0.00 | 0.00 | 99 | 1007.5 |